Temp
0 0 -0 0 1 2 2 2 2 1 1 2 2 1 2 2 2 2 2 2 2 1
-1 -1 -1 -1 -1 0 1 1 1 1 1 1 0 1 1 0 1 0 1 0 -0 -0
-2 -2 -2 -2 -2 -1 -0 -0 -0 -1 -1 -1 -1 -1 -2 -3 -2 -1 -1 -1 -1 -2
-3 -2 -3 -3 -3 -2 -1 -1 -1 -2 -3 -4 -3 -4 -3 -3 -3 -3 -2 -2 -3 -4
-4 -3 -4 -4 -3 -3 -2 -3 -3 -4 -5 -5 -4 -5 -5 -5 -5 -3 -4 -4 -4 -4
-4 -4 -5 -5 -4 -3 -4 -4 -6 -6 -5 -5 -6 -6 -6 -5 -5 -5 -5 -5 -5 -5
-6 -6 -6 -6 -6 -5 -6 -6 -6 -6 -5 -6 -6 -7 -6 -6 -6 -5 -6 -6 -6 -6
-7 -7 -7 -7 -7 -7 -6 -7 -6 -6 -6 -7 -8 -7 -7 -7 -6 -6 -6 -6 -6 -6
-9 -9 -9 -8 -7 -7 -7 -7 -7 -7 -7 -8 -8 -8 -9 -7 -7 -6 -7 -7 -7 -7
-9 -9 -9 -8 -8 -8 -8 -8 -8 -8 -8 -8 -9 -9 -8 -8 -7 -8 -8 -8 -8 -8
-9 -9 -9 -9 -9 -9 -9 -9 -9 -9 -9 -9 -9 -8 -8 -9 -9 -9 -9 -9 -9 -9
-10 -10 -10 -10 -10 -9 -9 -9 -9 -9 -9 -9 -9 -9 -9 -9 -9 -9 -9 -9 -9 -9
-10 -10 -10 -10 -10 -10 -10 -10 -10 -10 -10 -10 -10 -10 -10 -10 -9 -9 -9 -9 -10 -9
-11 -10 -10 -10 -10 -10 -10 -10 -11 -11 -10 -10 -10 -10 -10 -10 -10 -10 -10 -10 -9 -9
Height
1434 1435 1441 1445 1448 1451 1454 1457 1460 1464 1468 1472 1475 1477 1479 1481 1483 1485 1488 1488 1491 1493
1429 1432 1434 1440 1445 1448 1451 1454 1457 1461 1464 1468 1471 1475 1477 1479 1481 1483 1485 1488 1490 1491
1427 1429 1432 1435 1438 1444 1447 1449 1454 1458 1462 1465 1468 1471 1473 1475 1480 1481 1482 1485 1487 1489
1424 1426 1428 1431 1435 1439 1442 1447 1451 1455 1459 1462 1464 1467 1470 1473 1476 1478 1480 1482 1484 1486
1422 1423 1425 1428 1431 1436 1439 1445 1448 1450 1454 1458 1461 1464 1467 1469 1473 1475 1477 1479 1481 1482
1420 1422 1425 1427 1430 1434 1438 1441 1445 1448 1450 1453 1457 1461 1464 1467 1470 1472 1474 1476 1478 1479
1420 1422 1425 1427 1430 1434 1437 1440 1441 1444 1449 1452 1455 1458 1463 1464 1467 1469 1471 1473 1475 1477
1421 1422 1424 1427 1430 1433 1435 1439 1442 1444 1446 1449 1453 1456 1459 1463 1464 1466 1468 1469 1471 1473
1423 1424 1426 1429 1431 1433 1436 1438 1440 1442 1445 1447 1450 1453 1456 1460 1462 1463 1464 1465 1467 1469
1425 1427 1428 1431 1432 1434 1436 1438 1440 1442 1444 1446 1448 1452 1454 1456 1458 1460 1461 1462 1463 1465
1428 1429 1431 1433 1434 1435 1436 1438 1439 1441 1443 1445 1447 1449 1451 1454 1454 1458 1459 1460 1461 1462
1430 1431 1432 1434 1434 1435 1436 1437 1438 1439 1440 1442 1444 1446 1448 1450 1452 1454 1455 1456 1457 1459
1430 1431 1432 1433 1433 1433 1434 1435 1436 1437 1438 1439 1441 1443 1445 1447 1449 1452 1453 1454 1456 1458
1430 1429 1430 1431 1431 1432 1433 1433 1434 1435 1436 1438 1439 1441 1443 1446 1448 1450 1451 1452 1453 1454
Wind_Speed
27 27 27 27 27 28 30 30 28 25 21 18 18 16 16 14 14 14 14 14 14 14
23 23 23 23 25 26 26 26 25 23 21 21 19 18 17 15 15 15 14 14 14 14
19 19 19 20 22 25 25 26 26 25 24 22 22 17 15 17 16 14 13 13 12 12
16 15 15 17 19 23 24 26 26 25 22 22 20 17 14 13 11 11 11 12 12 11
12 11 13 15 17 21 22 25 26 25 25 26 24 19 17 16 15 15 14 12 12 11
9 10 12 14 16 19 23 26 25 25 24 21 20 18 16 15 13 12 13 12 10 10
5 8 10 13 17 21 23 27 26 25 20 19 17 13 15 14 13 13 12 11 11 10
6 9 13 15 18 21 23 23 22 19 18 17 15 18 16 12 14 13 13 13 12 11
5 7 11 14 14 15 18 20 20 19 17 17 18 14 14 16 17 16 15 14 12 12
4 7 9 11 13 15 14 13 13 14 15 14 14 16 17 18 16 14 12 11 11 10
3 4 5 6 7 7 8 9 10 11 12 14 15 15 14 12 12 11 12 12 11 11
2 3 4 5 6 7 8 9 10 11 12 13 13 12 13 14 14 12 10 9 7 7
2 3 4 6 6 7 8 9 10 10 10 10 11 11 14 16 15 11 8 6 6 7
3 4 5 7 7 7 7 8 8 8 9 10 11 12 12 14 8 8 7 7 6 8
Wind_Direction
236 238 244 241 238 232 230 227 223 219 215 222 225 222 226 225 223 227 229 232 234 234
239 242 239 240 242 238 232 227 222 217 216 215 213 223 220 224 227 226 231 228 230 233
239 245 243 236 237 237 229 222 215 215 213 211 212 206 222 231 238 230 227 231 229 231
244 248 237 228 232 230 221 213 209 211 207 213 208 207 213 215 221 227 231 234 231 227
246 246 224 221 222 223 214 206 208 205 203 214 224 219 224 232 230 222 223 220 225 227
239 228 219 219 217 213 203 195 200 213 216 208 211 213 218 218 218 216 220 223 223 227
207 209 212 210 206 199 191 200 205 217 225 220 214 203 206 224 226 220 218 221 229 237
207 203 200 197 193 203 208 209 218 214 209 206 200 208 226 218 215 219 226 231 240 247
183 189 186 199 210 206 209 212 212 209 210 206 216 210 203 218 224 230 239 242 248 252
149 176 193 202 201 202 206 209 210 212 217 215 209 214 224 234 242 239 233 229 227 236
136 166 179 186 194 200 207 213 217 221 226 232 235 234 229 221 217 218 218 227 242 240
138 174 197 207 215 221 225 227 227 230 232 237 239 224 210 204 209 213 221 226 235 248
248 230 233 237 237 240 240 240 240 239 236 228 227 216 214 207 213 206 217 229 248 243
277 266 256 254 253 250 243 240 235 224 230 225 225 213 212 199 194 220 217 232 247 247